This is the latest recevied weather packets stored in our database for station/object N7JP. If no packets are shown the sender has not sent any weather packets the latest 10 day(s).
| Time | Temp. | Humidity | Pressure | Rain* | Wind** | Luminosity | Snow |
|---|---|---|---|---|---|---|---|
| 1777674769 | 17.78° C | 66% | 1010.4 hPa | 0 mm | - | - | - |
| 1777673869 | 17.78° C | 70% | 1010.6 hPa | 0 mm | - | - | - |
| 1777672949 | 17.22° C | 71% | 1010.7 hPa | 0 mm | - | - | - |
| 1777672049 | 17.22° C | 70% | 1010.7 hPa | 0 mm | - | - | - |
| 1777671148 | 17.22° C | 70% | 1010.8 hPa | 0 mm | - | - | - |
| 1777670250 | 16.11° C | 76% | 1010.9 hPa | 0 mm | - | - | - |
| 1777669339 | 16.67° C | 74% | 1011 hPa | 0 mm | - | - | - |
| 1777668429 | 16.11° C | 74% | 1011 hPa | 0 mm | - | - | - |
| 1777667509 | 16.11° C | 77% | 1011 hPa | 0 mm | - | - | - |
| 1777666611 | 15.56° C | 79% | 1011.2 hPa | 0 mm | - | - | - |
| 1777665682 | 15° C | 78% | 1011.1 hPa | 0 mm | - | - | - |
| 1777664782 | 15° C | 81% | 1011 hPa | 0 mm | - | - | - |
| 1777663883 | 14.44° C | 80% | 1011.3 hPa | 0 mm | - | - | - |
| 1777662957 | 14.44° C | 82% | 1011.5 hPa | 0 mm | - | - | - |
| 1777662060 | 13.89° C | 83% | 1011.7 hPa | 0 mm | - | - | - |
| 1777661134 | 13.33° C | 82% | 1011.8 hPa | 0 mm | - | - | - |
| 1777660236 | 13.89° C | 83% | 1012 hPa | 0 mm | - | - | - |
| 1777659318 | 13.33° C | 84% | 1012.1 hPa | 0 mm | - | - | - |
| 1777658417 | 13.33° C | 85% | 1012.1 hPa | 0 mm | - | - | - |
| 1777657497 | 12.78° C | 86% | 1012 hPa | 0 mm | - | - | - |
| 1777656598 | 12.78° C | 87% | 1012.1 hPa | 0 mm | - | - | - |
| 1777655687 | 12.22° C | 87% | 1012.2 hPa | 0 mm | - | - | - |
| 1777654788 | 11.67° C | 88% | 1012.3 hPa | 0 mm | - | - | - |
| 1777653888 | 11.67° C | 89% | 1012.3 hPa | 0 mm | - | - | - |
| 1777652963 | 11.67° C | 90% | 1012.4 hPa | 0 mm | - | - | - |
* Rain latest hour (hover to see other rain measurements)
** Current wind speed in m/s (hover to see current wind gust speed)